Kremmling, CO

8:48 AM MDT on October 20, 2017 (GMT -0600)
Kremmling

Weather History for K20V - July, 2013

Change the Weather History Date:

Thursday, July 11, 2013

  Actual Average Record
Temperature  
Mean Temperature 70 °F -  
Max Temperature 95 °F - 95 °F (2013)
Min Temperature 46 °F - 37 °F (2008)
Degree Days  
Heating Degree Days 0    
Month to date heating degree days  
Cooling Degree Days 6    
Month to date cooling degree days  
Growing Degree Days 20 (Base 50)    
Moisture  
Dew Point 34 °F    
Average Humidity 37    
Maximum Humidity 81    
Minimum Humidity 4    
Precipitation  
Precipitation 0.00 in - 0.20 in (2010)
Sea Level Pressure  
Sea Level Pressure 30.24 in    
Wind  
Wind Speed 4 mph (SW)    
Max Wind Speed 23 mph    
Max Gust Speed 31 mph    
Visibility 10 miles    
Events Rain    
T = Trace of Precipitation, MM = Missing Value Source: NWS Daily Summary

Daily Weather History Graph

Daily Weather History Graph

Search for Another Location

Airport or City:

Trip Planner

Search our weather history database for the weather conditions in past years. The results will help you decide how hot, cold, wet, or windy it might be!

Date:

Astronomy

Jul. 11, 2013 Rise Set
Actual Time 5:46 AM MDT 8:35 PM MDT
Civil Twilight 5:14 AM MDT 9:07 PM MDT
Nautical Twilight 4:33 AM MDT 9:47 PM MDT
Astronomical Twilight 3:47 AM MDT 10:33 PM MDT
Moon 9:07 AM MDT (7/11) 10:17 PM MDT (7/11)
Length of Visible Light 15h 53m
Length of Day
14h 48m
Waxing Crescent, 11% of the Moon is Illuminated
Jul 11
Waxing Crescent
Jul 15
First Quarter
Jul 22
Full
Jul 29
Last Quarter
Aug 6
New

Hourly Weather History & Observations

Time (MDT) Temp. Dew Point Humidity Pressure Visibility Wind Dir Wind Speed Gust Speed Precip Events Conditions
12:16 AM 59.0 °F 39.2 °F 48% 30.29 in 10.0 mi East 8.1 mph - N/A   Clear
12:36 AM 59.0 °F 37.4 °F 45% 30.29 in 10.0 mi Calm Calm - N/A   Clear
12:56 AM 55.4 °F 41.0 °F 58% 30.30 in 10.0 mi Calm Calm - N/A   Clear
1:16 AM 53.6 °F 41.0 °F 62% 30.31 in 10.0 mi Calm Calm - N/A   Clear
1:36 AM 53.6 °F 41.0 °F 62% 30.31 in 10.0 mi Calm Calm - N/A   Clear
1:56 AM 53.6 °F 41.0 °F 62% 30.31 in 10.0 mi Calm Calm - N/A   Clear
2:16 AM 53.6 °F 41.0 °F 62% 30.31 in 10.0 mi Calm Calm - N/A   Clear
2:36 AM 53.6 °F 42.8 °F 67% 30.31 in 10.0 mi Calm Calm - N/A   Clear
2:56 AM 51.8 °F 41.0 °F 67% 30.31 in 10.0 mi Calm Calm - N/A   Clear
3:16 AM 50.0 °F 41.0 °F 71% 30.30 in 10.0 mi Calm Calm - N/A   Clear
3:36 AM 50.0 °F 42.8 °F 76% 30.30 in 10.0 mi Calm Calm - N/A   Clear
3:55 AM 50.0 °F 41.0 °F 71% 30.30 in 10.0 mi Calm Calm - N/A   Clear
4:16 AM 50.0 °F 41.0 °F 71% 30.30 in 10.0 mi Calm Calm - N/A   Clear
4:36 AM 50.0 °F 41.0 °F 71% 30.29 in 10.0 mi Calm Calm - N/A   Clear
4:56 AM 50.0 °F 41.0 °F 71% 30.29 in 10.0 mi Calm Calm - N/A   Clear
5:16 AM 46.4 °F 41.0 °F 81% 30.30 in 10.0 mi Calm Calm - N/A   Clear
5:36 AM 50.0 °F 41.0 °F 71% 30.31 in 10.0 mi Calm Calm - N/A   Clear
5:56 AM 46.4 °F 39.2 °F 76% 30.32 in 10.0 mi Calm Calm - N/A   Clear
6:16 AM 46.4 °F 39.2 °F 76% 30.32 in 10.0 mi Calm Calm - N/A   Clear
6:36 AM 50.0 °F 41.0 °F 71% 30.33 in 10.0 mi Calm Calm - N/A   Clear
6:56 AM 50.0 °F 41.0 °F 71% 30.33 in 10.0 mi Calm Calm - N/A   Clear
7:16 AM 51.8 °F 41.0 °F 67% 30.33 in 10.0 mi Calm Calm - N/A   Clear
7:36 AM 53.6 °F 42.8 °F 67% 30.33 in 10.0 mi Calm Calm - N/A   Clear
7:56 AM 53.6 °F 42.8 °F 67% 30.33 in 10.0 mi Calm Calm - N/A   Clear
8:16 AM 55.4 °F 42.8 °F 63% 30.32 in 10.0 mi Calm Calm - N/A   Clear
8:36 AM 59.0 °F 41.0 °F 51% 30.32 in 10.0 mi Calm Calm - N/A   Clear
8:56 AM 60.8 °F 41.0 °F 48% 30.32 in 10.0 mi Calm Calm - N/A   Clear
9:16 AM 64.4 °F 41.0 °F 42% 30.31 in 10.0 mi Calm Calm - N/A   Clear
9:36 AM 66.2 °F 39.2 °F 37% 30.30 in 10.0 mi Calm Calm - N/A   Clear
9:56 AM 69.8 °F 41.0 °F 35% 30.29 in 10.0 mi Calm Calm - N/A   Clear
10:16 AM 71.6 °F 41.0 °F 33% 30.29 in 10.0 mi Calm Calm - N/A   Clear
10:36 AM 73.4 °F 42.8 °F 33% 30.28 in 10.0 mi Calm Calm - N/A   Clear
10:56 AM 77.0 °F 39.2 °F 26% 30.27 in 10.0 mi ENE 4.6 mph - N/A   Clear
11:16 AM 78.8 °F 37.4 °F 23% 30.26 in 10.0 mi East 4.6 mph - N/A   Clear
11:36 AM 80.6 °F 37.4 °F 21% 30.24 in 10.0 mi SE 6.9 mph - N/A   Clear
11:56 AM 80.6 °F 33.8 °F 18% 30.24 in 10.0 mi Calm Calm - N/A   Clear
12:16 PM 82.4 °F 32.0 °F 16% 30.23 in 10.0 mi Calm Calm - N/A   Clear
12:35 PM 87.8 °F 28.4 °F 12% 30.22 in 10.0 mi Calm Calm - N/A   Clear
12:56 PM 89.6 °F 26.6 °F 10% 30.21 in 10.0 mi West 8.1 mph - N/A   Clear
1:16 PM 89.6 °F 19.4 °F 8% 30.20 in 10.0 mi West 4.6 mph - N/A   Clear
1:36 PM 89.6 °F 14.0 °F 6% 30.19 in 10.0 mi SSW 8.1 mph - N/A   Clear
1:56 PM 89.6 °F 14.0 °F 6% 30.19 in 10.0 mi West 11.5 mph - N/A   Clear
2:16 PM 89.6 °F 15.8 °F 7% 30.18 in 10.0 mi WNW 6.9 mph - N/A   Clear
2:35 PM 89.6 °F 17.6 °F 7% 30.17 in 10.0 mi West 9.2 mph - N/A   Clear
2:56 PM 93.2 °F 15.8 °F 6% 30.16 in 10.0 mi West 15.0 mph - N/A   Clear
3:16 PM 91.4 °F 14.0 °F 6% 30.16 in 10.0 mi WNW 9.2 mph 12.7 mph N/A   Clear
3:36 PM 95.0 °F 6.8 °F 4% 30.15 in 10.0 mi SSW 9.2 mph 16.1 mph N/A   Clear
3:56 PM 93.2 °F 12.2 °F 5% 30.14 in 10.0 mi West 9.2 mph - N/A   Clear
4:16 PM 95.0 °F 12.2 °F 5% 30.12 in 10.0 mi WSW 9.2 mph - N/A   Clear
4:35 PM 93.2 °F 15.8 °F 6% 30.12 in 10.0 mi West 6.9 mph - N/A   Clear
4:56 PM 95.0 °F 17.6 °F 6% 30.11 in 10.0 mi West 6.9 mph - N/A   Clear
5:16 PM 93.2 °F 14.0 °F 5% 30.10 in 10.0 mi WSW 3.5 mph - N/A   Clear
5:36 PM 89.6 °F 17.6 °F 7% 30.09 in 10.0 mi Calm Calm - N/A   Clear
5:56 PM 89.6 °F 17.6 °F 7% 30.09 in 10.0 mi WNW 3.5 mph - N/A   Clear
6:15 PM 89.6 °F 23.0 °F 9% 30.09 in 10.0 mi WNW 3.5 mph - N/A   Clear
6:36 PM 89.6 °F 23.0 °F 9% 30.09 in 10.0 mi Calm Calm - N/A   Clear
6:56 PM 82.4 °F 32.0 °F 16% 30.10 in 10.0 mi ESE 11.5 mph 16.1 mph N/A   Clear
7:16 PM 80.6 °F 28.4 °F 15% 30.11 in 10.0 mi South 12.7 mph - N/A   Clear
7:36 PM 80.6 °F 32.0 °F 17% 30.14 in 10.0 mi South 11.5 mph - N/A   Mostly Cloudy
7:56 PM 77.0 °F 35.6 °F 22% 30.16 in 10.0 mi South 20.7 mph 27.6 mph N/A   Overcast
8:16 PM 77.0 °F 37.4 °F 24% 30.19 in 10.0 mi South 13.8 mph 21.9 mph N/A   Overcast
8:36 PM 77.0 °F 33.8 °F 21% 30.19 in 10.0 mi SW 16.1 mph 20.7 mph N/A   Overcast
8:56 PM 73.4 °F 37.4 °F 27% 30.20 in 10.0 mi SW 18.4 mph 31.1 mph N/A   Overcast
9:16 PM 73.4 °F 41.0 °F 31% 30.19 in 10.0 mi SW 12.7 mph 24.2 mph N/A   Scattered Clouds
9:36 PM 73.4 °F 41.0 °F 31% 30.20 in 10.0 mi WSW 23.0 mph 29.9 mph N/A   Mostly Cloudy
9:56 PM 73.4 °F 41.0 °F 31% 30.21 in 10.0 mi WSW 16.1 mph 20.7 mph N/A   Overcast
10:15 PM 73.4 °F 42.8 °F 33% 30.22 in 10.0 mi NNE 6.9 mph - N/A   Mostly Cloudy
10:36 PM 73.4 °F 41.0 °F 31% 30.23 in 10.0 mi ENE 5.8 mph - N/A   Mostly Cloudy
10:55 PM 71.6 °F 41.0 °F 33% 30.25 in 10.0 mi South 13.8 mph 20.7 mph N/A Rain Light Rain
11:16 PM 71.6 °F 42.8 °F 35% 30.25 in 10.0 mi SE 9.2 mph - N/A   Mostly Cloudy
11:36 PM 69.8 °F 42.8 °F 38% 30.25 in 10.0 mi Calm Calm - N/A Rain Light Rain
11:56 PM 69.8 °F 46.4 °F 43% 30.26 in 10.0 mi South 5.8 mph - N/A Rain Light Rain